Time,TemperatureF,DewpointF,PressureIn,WindDirection,WindDirectionDegrees,WindSpeedMPH,WindSpeedGustMPH,Humidity,HourlyPrecipIn,Conditions,Clouds,dailyrainin,SoftwareType,DateUTC
2013-02-03 00:02:00,42.3,19.1,29.62,North,0,2.0,2.5,39,0.00,,---,0.00,VWS V14.01,2013-02-03 06:02:00,
2013-02-03 00:07:00,41.9,19.4,29.62,North,0,2.5,3.1,40,0.00,,---,0.00,VWS V14.01,2013-02-03 06:07:00,
2013-02-03 00:12:00,41.5,19.0,29.62,NNW,338,3.6,3.6,40,0.00,,---,0.00,VWS V14.01,2013-02-03 06:12:00,
2013-02-03 00:17:00,41.5,19.6,29.62,North,0,2.9,3.6,41,0.00,,---,0.00,VWS V14.01,2013-02-03 06:17:00,
2013-02-03 00:22:00,41.5,19.6,29.62,NNW,338,3.4,3.8,41,0.00,,---,0.00,VWS V14.01,2013-02-03 06:22:00,
2013-02-03 00:27:00,41.7,19.8,29.62,NNW,338,3.1,4.0,41,0.00,,---,0.00,VWS V14.01,2013-02-03 06:27:00,
2013-02-03 00:32:00,41.5,19.6,29.62,NNW,338,2.9,3.8,41,0.00,,---,0.00,VWS V14.01,2013-02-03 06:32:00,
2013-02-03 00:37:00,41.5,19.6,29.62,North,0,3.6,3.6,41,0.00,,---,0.00,VWS V14.01,2013-02-03 06:37:00,
2013-02-03 00:42:00,41.2,19.9,29.62,NW,315,2.7,3.4,42,0.00,,---,0.00,VWS V14.01,2013-02-03 06:42:00,
2013-02-03 00:47:00,41.2,19.3,29.62,NNW,338,2.2,3.6,41,0.00,,---,0.00,VWS V14.01,2013-02-03 06:47:00,
2013-02-03 00:52:00,41.4,19.5,29.62,NW,315,2.5,2.7,41,0.00,,---,0.00,VWS V14.01,2013-02-03 06:52:00,
2013-02-03 00:57:00,41.4,19.5,29.62,WNW,292,2.5,2.7,41,0.00,,---,0.00,VWS V14.01,2013-02-03 06:57:00,
2013-02-03 01:02:00,41.5,19.6,29.62,NNW,338,2.0,2.5,41,0.00,,---,0.00,VWS V14.01,2013-02-03 07:02:00,
2013-02-03 01:07:00,41.4,19.5,29.62,NW,315,2.0,2.0,41,0.00,,---,0.00,VWS V14.01,2013-02-03 07:07:00,
2013-02-03 01:12:00,41.4,18.9,29.62,WNW,292,1.6,2.2,40,0.00,,---,0.00,VWS V14.01,2013-02-03 07:12:00,
2013-02-03 01:17:00,41.5,19.6,29.62,WNW,292,2.7,3.4,41,0.00,,---,0.00,VWS V14.01,2013-02-03 07:17:00,
2013-02-03 01:22:00,41.5,19.6,29.62,West,270,1.6,2.2,41,0.00,,---,0.00,VWS V14.01,2013-02-03 07:22:00,
2013-02-03 01:27:00,41.5,19.0,29.62,NNW,338,0.9,3.1,40,0.00,,---,0.00,VWS V14.01,2013-02-03 07:27:00,
2013-02-03 01:32:00,41.5,19.0,29.62,NNW,338,1.6,4.0,40,0.00,,---,0.00,VWS V14.01,2013-02-03 07:32:00,
2013-02-03 01:37:00,41.5,19.0,29.62,NW,315,1.1,1.6,40,0.00,,---,0.00,VWS V14.01,2013-02-03 07:37:00,
2013-02-03 01:43:00,41.9,19.4,29.62,WNW,292,3.8,4.9,40,0.00,,---,0.00,VWS V14.01,2013-02-03 07:43:00,
2013-02-03 01:48:00,42.1,19.5,29.62,NW,315,1.6,3.1,40,0.00,,---,0.00,VWS V14.01,2013-02-03 07:48:00,
2013-02-03 01:53:00,42.4,19.8,29.62,West,270,3.1,4.3,40,0.00,,---,0.00,VWS V14.01,2013-02-03 07:53:00,
2013-02-03 01:58:00,42.4,19.2,29.62,West,270,3.1,5.4,39,0.00,,---,0.00,VWS V14.01,2013-02-03 07:58:00,
2013-02-03 02:03:00,42.8,19.6,29.62,West,270,3.1,7.4,39,0.00,,---,0.00,VWS V14.01,2013-02-03 08:03:00,
2013-02-03 02:08:00,42.8,19.6,29.62,West,270,2.9,4.0,39,0.00,,---,0.00,VWS V14.01,2013-02-03 08:08:00,
2013-02-03 02:13:00,43.2,19.9,29.62,WSW,248,5.8,5.8,39,0.00,,---,0.00,VWS V14.01,2013-02-03 08:13:00,
2013-02-03 02:18:00,43.3,20.1,29.62,West,270,3.1,6.3,39,0.00,,---,0.00,VWS V14.01,2013-02-03 08:18:00,
2013-02-03 02:23:00,43.7,19.8,29.62,WSW,248,6.0,7.6,38,0.00,,---,0.00,VWS V14.01,2013-02-03 08:23:00,
2013-02-03 02:28:00,43.5,19.6,29.62,WNW,292,5.8,6.5,38,0.00,,---,0.00,VWS V14.01,2013-02-03 08:28:00,
2013-02-03 02:33:00,43.5,19.6,29.59,WSW,248,3.6,7.6,38,0.00,,---,0.00,VWS V14.01,2013-02-03 08:33:00,
2013-02-03 02:38:00,43.3,19.5,29.59,West,270,4.0,8.1,38,0.00,,---,0.00,VWS V14.01,2013-02-03 08:38:00,
2013-02-03 02:43:00,43.3,19.5,29.59,WSW,248,3.4,6.0,38,0.00,,---,0.00,VWS V14.01,2013-02-03 08:43:00,
2013-02-03 02:48:00,43.3,19.5,29.59,WSW,248,3.8,6.5,38,0.00,,---,0.00,VWS V14.01,2013-02-03 08:48:00,
2013-02-03 02:53:00,43.3,19.5,29.59,WSW,248,3.8,7.4,38,0.00,,---,0.00,VWS V14.01,2013-02-03 08:53:00,
2013-02-03 02:58:00,43.3,19.5,29.59,WSW,248,4.3,5.8,38,0.00,,---,0.00,VWS V14.01,2013-02-03 08:58:00,
2013-02-03 03:03:00,43.2,19.9,29.59,WNW,292,3.8,6.3,39,0.00,,---,0.00,VWS V14.01,2013-02-03 09:03:00,
2013-02-03 03:08:00,43.2,19.9,29.59,West,270,3.6,5.6,39,0.00,,---,0.00,VWS V14.01,2013-02-03 09:08:00,
2013-02-03 03:13:00,43.2,19.9,29.59,WSW,248,3.8,6.3,39,0.00,,---,0.00,VWS V14.01,2013-02-03 09:13:00,
2013-02-03 03:18:00,43.0,19.7,29.59,WSW,248,3.4,5.4,39,0.00,,---,0.00,VWS V14.01,2013-02-03 09:18:00,
2013-02-03 03:23:00,43.2,19.9,29.59,SW,225,3.6,6.5,39,0.00,,---,0.00,VWS V14.01,2013-02-03 09:23:00,
2013-02-03 03:28:00,42.8,19.6,29.59,WNW,292,4.0,5.4,39,0.00,,---,0.00,VWS V14.01,2013-02-03 09:28:00,
2013-02-03 03:33:00,42.4,19.2,29.59,West,270,3.1,6.0,39,0.00,,---,0.00,VWS V14.01,2013-02-03 09:33:00,
2013-02-03 03:38:00,42.4,19.2,29.59,WSW,248,3.6,5.6,39,0.00,,---,0.00,VWS V14.01,2013-02-03 09:38:00,
2013-02-03 03:43:00,42.3,19.1,29.59,North,0,2.9,4.3,39,0.00,,---,0.00,VWS V14.01,2013-02-03 09:43:00,
2013-02-03 03:48:00,41.9,18.8,29.56,NNW,338,1.1,3.4,39,0.00,,---,0.00,VWS V14.01,2013-02-03 09:48:00,
2013-02-03 03:53:00,41.4,18.9,29.56,North,0,1.3,2.9,40,0.00,,---,0.00,VWS V14.01,2013-02-03 09:53:00,
2013-02-03 03:58:00,40.6,18.8,29.56,North,0,2.7,3.4,41,0.00,,---,0.00,VWS V14.01,2013-02-03 09:58:00,
2013-02-03 04:03:00,40.1,18.9,29.59,North,0,3.4,3.8,42,0.00,,---,0.00,VWS V14.01,2013-02-03 10:03:00,
2013-02-03 04:08:00,39.6,18.4,29.59,NNW,338,2.9,3.8,42,0.00,,---,0.00,VWS V14.01,2013-02-03 10:08:00,
2013-02-03 04:13:00,39.4,18.8,29.59,NW,315,2.9,4.9,43,0.00,,---,0.00,VWS V14.01,2013-02-03 10:13:00,
2013-02-03 04:18:00,39.6,19.5,29.59,NNW,338,2.7,4.3,44,0.00,,---,0.00,VWS V14.01,2013-02-03 10:18:00,
2013-02-03 04:23:00,39.4,19.3,29.59,NNW,338,4.0,4.0,44,0.00,,---,0.00,VWS V14.01,2013-02-03 10:23:00,
2013-02-03 04:28:00,39.4,19.3,29.59,NW,315,2.5,3.4,44,0.00,,---,0.00,VWS V14.01,2013-02-03 10:28:00,
2013-02-03 04:33:00,39.4,19.8,29.59,NNW,338,2.9,5.8,45,0.00,,---,0.00,VWS V14.01,2013-02-03 10:33:00,
2013-02-03 04:38:00,39.4,19.8,29.59,NW,315,2.5,5.4,45,0.00,,---,0.00,VWS V14.01,2013-02-03 10:38:00,
2013-02-03 04:44:00,39.4,19.3,29.59,NNW,338,2.2,2.9,44,0.00,,---,0.00,VWS V14.01,2013-02-03 10:44:00,
2013-02-03 04:49:00,39.2,19.1,29.59,North,0,1.3,3.1,44,0.00,,---,0.00,VWS V14.01,2013-02-03 10:49:00,
2013-02-03 04:54:00,38.7,18.6,29.59,North,0,0.0,1.3,44,0.00,,---,0.00,VWS V14.01,2013-02-03 10:54:00,
2013-02-03 04:59:00,38.1,18.1,29.59,North,0,0.0,1.6,44,0.00,,---,0.00,VWS V14.01,2013-02-03 10:59:00,
2013-02-03 05:04:00,37.9,19.0,29.59,West,270,0.0,2.9,46,0.00,,---,0.00,VWS V14.01,2013-02-03 11:04:00,
2013-02-03 05:09:00,37.8,19.4,29.59,NNE,22,1.1,2.2,47,0.00,,---,0.00,VWS V14.01,2013-02-03 11:09:00,
2013-02-03 05:14:00,37.6,19.2,29.59,NE,45,0.0,3.8,47,0.00,,---,0.00,VWS V14.01,2013-02-03 11:14:00,
2013-02-03 05:19:00,37.8,19.9,29.59,NNW,338,2.2,2.2,48,0.00,,---,0.00,VWS V14.01,2013-02-03 11:19:00,
2013-02-03 05:24:00,37.8,19.4,29.59,NNW,338,0.0,2.9,47,0.00,,---,0.00,VWS V14.01,2013-02-03 11:24:00,
2013-02-03 05:29:00,37.8,19.9,29.59,WNW,292,1.3,2.5,48,0.00,,---,0.00,VWS V14.01,2013-02-03 11:29:00,
2013-02-03 05:34:00,37.8,20.3,29.59,WNW,292,1.6,1.6,49,0.00,,---,0.00,VWS V14.01,2013-02-03 11:34:00,
2013-02-03 05:39:00,37.8,19.9,29.59,NNW,338,1.1,2.0,48,0.00,,---,0.00,VWS V14.01,2013-02-03 11:39:00,
2013-02-03 05:44:00,37.9,20.0,29.59,WNW,292,1.1,2.5,48,0.00,,---,0.00,VWS V14.01,2013-02-03 11:44:00,
2013-02-03 05:49:00,37.9,20.5,29.59,WNW,292,2.9,2.9,49,0.00,,---,0.00,VWS V14.01,2013-02-03 11:49:00,
2013-02-03 05:54:00,37.8,20.3,29.59,WSW,248,1.1,2.0,49,0.00,,---,0.00,VWS V14.01,2013-02-03 11:54:00,
2013-02-03 05:59:00,37.4,19.5,29.59,West,270,0.0,0.0,48,0.00,,---,0.00,VWS V14.01,2013-02-03 11:59:00,
2013-02-03 06:04:00,37.0,19.7,29.59,WNW,292,2.7,2.7,49,0.00,,---,0.00,VWS V14.01,2013-02-03 12:04:00,
2013-02-03 06:09:00,36.9,20.0,29.59,North,0,2.5,2.5,50,0.00,,---,0.00,VWS V14.01,2013-02-03 12:09:00,
2013-02-03 06:14:00,36.9,20.0,29.59,NNW,338,3.1,3.1,50,0.00,,---,0.00,VWS V14.01,2013-02-03 12:14:00,
2013-02-03 06:20:00,36.7,20.3,29.62,North,0,2.0,2.2,51,0.00,,---,0.00,VWS V14.01,2013-02-03 12:20:00,
2013-02-03 06:25:00,36.3,19.5,29.62,NNW,338,0.0,0.0,50,0.00,,---,0.00,VWS V14.01,2013-02-03 12:25:00,
2013-02-03 06:30:00,36.0,19.1,29.62,NNW,338,0.0,0.0,50,0.00,,---,0.00,VWS V14.01,2013-02-03 12:30:00,
2013-02-03 06:35:00,35.8,19.4,29.62,North,0,0.9,1.1,51,0.00,,---,0.00,VWS V14.01,2013-02-03 12:35:00,
2013-02-03 06:40:00,35.6,19.3,29.62,NW,315,1.6,2.2,51,0.00,,---,0.00,VWS V14.01,2013-02-03 12:40:00,
2013-02-03 06:45:00,35.6,20.2,29.62,NNW,338,1.6,2.2,53,0.00,,---,0.00,VWS V14.01,2013-02-03 12:45:00,
2013-02-03 06:50:00,35.6,20.2,29.59,NW,315,2.5,2.5,53,0.00,,---,0.00,VWS V14.01,2013-02-03 12:50:00,
2013-02-03 06:55:00,36.3,21.3,29.59,NNW,338,1.6,2.5,54,0.00,,---,0.00,VWS V14.01,2013-02-03 12:55:00,
2013-02-03 07:00:00,36.5,21.0,29.59,NNW,338,1.6,2.2,53,0.00,,---,0.00,VWS V14.01,2013-02-03 13:00:00,
2013-02-03 07:05:00,36.7,20.7,29.59,NNW,338,2.5,2.7,52,0.00,,---,0.00,VWS V14.01,2013-02-03 13:05:00,
2013-02-03 07:10:00,36.7,20.7,29.59,WNW,292,0.0,1.1,52,0.00,,---,0.00,VWS V14.01,2013-02-03 13:10:00,
2013-02-03 07:15:00,36.5,20.1,29.59,NNW,338,0.9,1.3,51,0.00,,---,0.00,VWS V14.01,2013-02-03 13:15:00,
2013-02-03 07:20:00,36.3,20.4,29.62,NW,315,0.9,2.7,52,0.00,,---,0.00,VWS V14.01,2013-02-03 13:20:00,
2013-02-03 07:25:00,36.5,21.0,29.62,NNW,338,3.1,3.1,53,0.00,,---,0.00,VWS V14.01,2013-02-03 13:25:00,
2013-02-03 07:30:00,36.9,21.3,29.62,NNW,338,2.0,3.4,53,0.00,,---,0.00,VWS V14.01,2013-02-03 13:30:00,
2013-02-03 07:35:00,36.7,21.2,29.65,WNW,292,3.4,3.4,53,0.00,,---,0.00,VWS V14.01,2013-02-03 13:35:00,
2013-02-03 07:40:00,36.9,21.3,29.65,NNW,338,1.1,3.1,53,0.00,,---,0.00,VWS V14.01,2013-02-03 13:40:00,
2013-02-03 07:46:00,36.9,21.3,29.65,NNW,338,2.2,3.4,53,0.00,,---,0.00,VWS V14.01,2013-02-03 13:46:00,
2013-02-03 07:51:00,36.9,20.9,29.65,NNE,22,2.9,2.9,52,0.00,,---,0.00,VWS V14.01,2013-02-03 13:51:00,
2013-02-03 07:57:00,36.9,20.9,29.65,NNW,338,1.3,2.2,52,0.00,,---,0.00,VWS V14.01,2013-02-03 13:57:00,
2013-02-03 08:02:00,36.7,20.7,29.65,NNW,338,0.0,1.6,52,0.00,,---,0.00,VWS V14.01,2013-02-03 14:02:00,
2013-02-03 08:07:00,36.9,21.3,29.65,North,0,1.3,2.5,53,0.00,,---,0.00,VWS V14.01,2013-02-03 14:07:00,
2013-02-03 08:12:00,36.9,21.3,29.65,North,0,0.0,2.5,53,0.00,,---,0.00,VWS V14.01,2013-02-03 14:12:00,
2013-02-03 08:17:00,37.9,21.9,29.62,West,270,2.9,3.8,52,0.00,,---,0.00,VWS V14.01,2013-02-03 14:17:00,
2013-02-03 08:22:00,38.5,21.9,29.62,WNW,292,2.5,2.7,51,0.00,,---,0.00,VWS V14.01,2013-02-03 14:22:00,
2013-02-03 08:27:00,38.8,22.3,29.62,WNW,292,2.0,2.7,51,0.00,,---,0.00,VWS V14.01,2013-02-03 14:27:00,
2013-02-03 08:32:00,39.7,22.6,29.65,West,270,4.0,4.0,50,0.00,,---,0.00,VWS V14.01,2013-02-03 14:32:00,
2013-02-03 08:37:00,40.3,22.7,29.65,WNW,292,3.4,3.4,49,0.00,,---,0.00,VWS V14.01,2013-02-03 14:37:00,
2013-02-03 08:42:00,41.2,22.5,29.65,NW,315,4.0,4.0,47,0.00,,---,0.00,VWS V14.01,2013-02-03 14:42:00,
2013-02-03 08:47:00,42.1,22.3,29.68,NNW,338,2.9,4.7,45,0.00,,---,0.00,VWS V14.01,2013-02-03 14:47:00,
2013-02-03 08:52:00,43.2,21.1,29.68,West,270,3.4,5.8,41,0.00,,---,0.00,VWS V14.01,2013-02-03 14:52:00,
2013-02-03 08:57:00,44.1,21.9,29.68,NNW,338,2.7,4.5,41,0.00,,---,0.00,VWS V14.01,2013-02-03 14:57:00,
2013-02-03 09:02:00,44.8,21.4,29.68,NNW,338,2.9,4.7,39,0.00,,---,0.00,VWS V14.01,2013-02-03 15:02:00,
2013-02-03 09:07:00,45.7,22.2,29.68,West,270,4.9,4.9,39,0.00,,---,0.00,VWS V14.01,2013-02-03 15:07:00,
2013-02-03 09:12:00,46.2,21.4,29.68,WSW,248,6.0,6.0,37,0.00,,---,0.00,VWS V14.01,2013-02-03 15:12:00,
2013-02-03 09:17:00,46.6,20.4,29.68,West,270,6.0,6.0,35,0.00,,---,0.00,VWS V14.01,2013-02-03 15:17:00,
2013-02-03 09:22:00,46.8,19.2,29.68,West,270,6.0,7.6,33,0.00,,---,0.00,VWS V14.01,2013-02-03 15:22:00,
2013-02-03 09:27:00,47.5,19.8,29.68,NW,315,4.3,6.5,33,0.00,,---,0.00,VWS V14.01,2013-02-03 15:27:00,
2013-02-03 09:32:00,47.8,17.9,29.68,WNW,292,4.0,8.1,30,0.00,,---,0.00,VWS V14.01,2013-02-03 15:32:00,
2013-02-03 09:37:00,48.4,18.4,29.68,NW,315,5.8,7.8,30,0.00,,---,0.00,VWS V14.01,2013-02-03 15:37:00,
2013-02-03 09:42:00,48.7,17.9,29.68,West,270,6.7,7.6,29,0.00,,---,0.00,VWS V14.01,2013-02-03 15:42:00,
2013-02-03 09:47:00,49.5,18.5,29.68,WSW,248,7.4,7.4,29,0.00,,---,0.00,VWS V14.01,2013-02-03 15:47:00,
2013-02-03 09:52:00,49.8,18.0,29.68,NNW,338,4.7,6.3,28,0.00,,---,0.00,VWS V14.01,2013-02-03 15:52:00,
2013-02-03 09:57:00,50.2,17.5,29.68,NW,315,2.5,7.6,27,0.00,,---,0.00,VWS V14.01,2013-02-03 15:57:00,
2013-02-03 10:02:00,50.2,17.5,29.68,NW,315,3.8,6.7,27,0.00,,---,0.00,VWS V14.01,2013-02-03 16:02:00,
2013-02-03 10:08:00,50.4,17.7,29.68,NNW,338,4.9,6.3,27,0.00,,---,0.00,VWS V14.01,2013-02-03 16:08:00,
2013-02-03 10:13:00,51.3,17.6,29.68,NNE,22,2.7,7.4,26,0.00,,---,0.00,VWS V14.01,2013-02-03 16:13:00,
2013-02-03 10:18:00,51.6,17.9,29.68,NNW,338,3.6,5.8,26,0.00,,---,0.00,VWS V14.01,2013-02-03 16:18:00,
2013-02-03 10:23:00,52.3,18.5,29.68,WNW,292,1.1,5.4,26,0.00,,---,0.00,VWS V14.01,2013-02-03 16:23:00,
2013-02-03 10:28:00,52.5,18.6,29.68,West,270,3.1,5.8,26,0.00,,---,0.00,VWS V14.01,2013-02-03 16:28:00,
2013-02-03 10:33:00,51.6,16.0,29.65,WSW,248,7.8,8.7,24,0.00,,---,0.00,VWS V14.01,2013-02-03 16:33:00,
2013-02-03 10:38:00,52.3,15.7,29.65,West,270,4.9,8.5,23,0.00,,---,0.00,VWS V14.01,2013-02-03 16:38:00,
2013-02-03 10:43:00,52.2,15.5,29.65,NW,315,4.0,8.5,23,0.00,,---,0.00,VWS V14.01,2013-02-03 16:43:00,
2013-02-03 10:48:00,53.1,14.2,29.68,WNW,292,4.7,7.8,21,0.00,,---,0.00,VWS V14.01,2013-02-03 16:48:00,
2013-02-03 10:53:00,53.4,14.5,29.68,West,270,5.4,6.5,21,0.00,,---,0.00,VWS V14.01,2013-02-03 16:53:00,
2013-02-03 10:58:00,53.4,14.5,29.68,NW,315,1.3,7.4,21,0.00,,---,0.00,VWS V14.01,2013-02-03 16:58:00,
2013-02-03 11:03:00,53.6,13.5,29.68,NW,315,2.7,6.9,20,0.00,,---,0.00,VWS V14.01,2013-02-03 17:03:00,
2013-02-03 11:08:00,54.7,14.4,29.68,WSW,248,3.4,6.5,20,0.00,,---,0.00,VWS V14.01,2013-02-03 17:08:00,
2013-02-03 11:13:00,54.7,14.4,29.68,WSW,248,4.0,7.6,20,0.00,,---,0.00,VWS V14.01,2013-02-03 17:13:00,
2013-02-03 11:18:00,55.2,14.9,29.71,NW,315,3.8,5.8,20,0.00,,---,0.00,VWS V14.01,2013-02-03 17:18:00,
2013-02-03 11:23:00,54.9,12.2,29.71,WSW,248,5.6,8.5,18,0.00,,---,0.00,VWS V14.01,2013-02-03 17:23:00,
2013-02-03 11:28:00,55.2,12.5,29.71,West,270,5.8,9.8,18,0.00,,---,0.00,VWS V14.01,2013-02-03 17:28:00,
2013-02-03 11:33:00,55.4,11.3,29.68,West,270,5.4,9.8,17,0.00,,---,0.00,VWS V14.01,2013-02-03 17:33:00,
2013-02-03 11:38:00,55.9,15.5,29.68,WNW,292,7.2,7.4,20,0.00,,---,0.00,VWS V14.01,2013-02-03 17:38:00,
2013-02-03 11:43:00,55.8,11.6,29.68,WSW,248,8.5,8.5,17,0.00,,---,0.00,VWS V14.01,2013-02-03 17:43:00,
2013-02-03 11:48:00,56.5,12.2,29.68,WNW,292,4.7,7.4,17,0.00,,---,0.00,VWS V14.01,2013-02-03 17:48:00,
2013-02-03 11:53:00,57.2,12.8,29.68,North,0,1.6,5.4,17,0.00,,---,0.00,VWS V14.01,2013-02-03 17:53:00,
2013-02-03 11:58:00,57.6,13.1,29.68,West,270,2.5,7.8,17,0.00,,---,0.00,VWS V14.01,2013-02-03 17:58:00,
2013-02-03 12:03:00,58.1,13.5,29.68,WSW,248,2.5,6.3,17,0.00,,---,0.00,VWS V14.01,2013-02-03 18:03:00,
2013-02-03 12:08:00,58.3,13.7,29.68,NW,315,3.8,4.9,17,0.00,,---,0.00,VWS V14.01,2013-02-03 18:08:00,
2013-02-03 12:13:00,58.6,14.0,29.68,NW,315,4.0,5.4,17,0.00,,---,0.00,VWS V14.01,2013-02-03 18:13:00,
2013-02-03 12:18:00,58.6,14.0,29.65,NNW,338,2.5,6.7,17,0.00,,---,0.00,VWS V14.01,2013-02-03 18:18:00,
2013-02-03 12:23:00,58.8,14.1,29.65,NE,45,4.0,5.8,17,0.00,,---,0.00,VWS V14.01,2013-02-03 18:23:00,
2013-02-03 12:28:00,57.6,13.1,29.65,West,270,3.8,9.6,17,0.00,,---,0.00,VWS V14.01,2013-02-03 18:28:00,
2013-02-03 12:33:00,57.9,13.4,29.65,SSW,202,4.3,6.3,17,0.00,,---,0.00,VWS V14.01,2013-02-03 18:33:00,
2013-02-03 12:38:00,57.9,13.4,29.65,North,0,6.5,9.8,17,0.00,,---,0.00,VWS V14.01,2013-02-03 18:38:00,
2013-02-03 12:44:00,57.7,13.2,29.65,WSW,248,6.3,8.7,17,0.00,,---,0.00,VWS V14.01,2013-02-03 18:44:00,
2013-02-03 12:49:00,58.1,13.5,29.65,North,0,1.6,6.0,17,0.00,,---,0.00,VWS V14.01,2013-02-03 18:49:00,
2013-02-03 12:54:00,58.1,13.5,29.65,NW,315,3.8,6.0,17,0.00,,---,0.00,VWS V14.01,2013-02-03 18:54:00,
2013-02-03 12:59:00,58.1,13.5,29.65,WSW,248,2.2,5.8,17,0.00,,---,0.00,VWS V14.01,2013-02-03 18:59:00,
2013-02-03 13:04:00,58.3,13.7,29.62,West,270,4.7,5.8,17,0.00,,---,0.00,VWS V14.01,2013-02-03 19:04:00,
2013-02-03 13:09:00,58.3,13.7,29.62,NNW,338,4.9,4.9,17,0.00,,---,0.00,VWS V14.01,2013-02-03 19:09:00,
2013-02-03 13:14:00,58.6,14.0,29.62,South,180,1.1,1.1,17,0.00,,---,0.00,VWS V14.01,2013-02-03 19:14:00,
2013-02-03 13:19:00,59.0,14.3,29.62,West,270,2.9,4.0,17,0.00,,---,0.00,VWS V14.01,2013-02-03 19:19:00,
2013-02-03 13:24:00,59.2,14.4,29.62,NW,315,2.5,2.9,17,0.00,,---,0.00,VWS V14.01,2013-02-03 19:24:00,
2013-02-03 13:29:00,58.8,14.1,29.62,West,270,3.1,4.9,17,0.00,,---,0.00,VWS V14.01,2013-02-03 19:29:00,
2013-02-03 13:34:00,58.5,13.8,29.62,West,270,3.8,3.8,17,0.00,,---,0.00,VWS V14.01,2013-02-03 19:34:00,
2013-02-03 13:39:00,58.1,13.5,29.62,WSW,248,4.0,6.3,17,0.00,,---,0.00,VWS V14.01,2013-02-03 19:39:00,
2013-02-03 13:44:00,58.5,13.8,29.62,WSW,248,2.9,2.9,17,0.00,,---,0.00,VWS V14.01,2013-02-03 19:44:00,
2013-02-03 13:49:00,59.2,14.4,29.62,West,270,3.8,3.8,17,0.00,,---,0.00,VWS V14.01,2013-02-03 19:49:00,
2013-02-03 13:54:00,58.8,14.1,29.62,SSW,202,2.5,2.7,17,0.00,,---,0.00,VWS V14.01,2013-02-03 19:54:00,
2013-02-03 13:59:00,58.6,14.0,29.62,WSW,248,2.9,2.9,17,0.00,,---,0.00,VWS V14.01,2013-02-03 19:59:00,
2013-02-03 14:04:00,58.8,14.1,29.59,WSW,248,6.0,6.9,17,0.00,,---,0.00,VWS V14.01,2013-02-03 20:04:00,
2013-02-03 14:09:00,59.2,14.4,29.59,NNE,22,4.0,4.0,17,0.00,,---,0.00,VWS V14.01,2013-02-03 20:09:00,
2013-02-03 14:14:00,59.7,14.9,29.59,NNW,338,3.4,3.4,17,0.00,,---,0.00,VWS V14.01,2013-02-03 20:14:00,
2013-02-03 14:19:00,59.7,14.9,29.59,SW,225,4.0,4.7,17,0.00,,---,0.00,VWS V14.01,2013-02-03 20:19:00,
2013-02-03 14:24:00,59.9,15.0,29.59,West,270,2.9,2.9,17,0.00,,---,0.00,VWS V14.01,2013-02-03 20:24:00,
2013-02-03 14:29:00,60.1,15.1,29.59,West,270,3.6,4.9,17,0.00,,---,0.00,VWS V14.01,2013-02-03 20:29:00,
2013-02-03 14:34:00,60.1,15.1,29.59,NW,315,5.4,7.4,17,0.00,,---,0.00,VWS V14.01,2013-02-03 20:34:00,
2013-02-03 14:39:00,60.1,15.1,29.59,West,270,3.1,5.6,17,0.00,,---,0.00,VWS V14.01,2013-02-03 20:39:00,
2013-02-03 14:44:00,59.2,14.4,29.59,SSW,202,4.0,5.8,17,0.00,,---,0.00,VWS V14.01,2013-02-03 20:44:00,
2013-02-03 14:50:00,59.4,14.6,29.59,SSW,202,3.8,3.8,17,0.00,,---,0.00,VWS V14.01,2013-02-03 20:50:00,
2013-02-03 14:55:00,59.7,14.9,29.59,ESE,112,1.6,1.6,17,0.00,,---,0.00,VWS V14.01,2013-02-03 20:55:00,
2013-02-03 15:00:00,60.1,15.1,29.59,SSW,202,2.7,2.7,17,0.00,,---,0.00,VWS V14.01,2013-02-03 21:00:00,
2013-02-03 15:05:00,60.8,14.4,29.56,West,270,1.6,1.6,16,0.00,,---,0.00,VWS V14.01,2013-02-03 21:05:00,
2013-02-03 15:10:00,60.8,14.4,29.56,SW,225,3.6,4.3,16,0.00,,---,0.00,VWS V14.01,2013-02-03 21:10:00,
2013-02-03 15:15:00,60.4,15.4,29.56,SSW,202,2.2,3.6,17,0.00,,---,0.00,VWS V14.01,2013-02-03 21:15:00,
2013-02-03 15:20:00,60.4,15.4,29.56,South,180,3.6,3.6,17,0.00,,---,0.00,VWS V14.01,2013-02-03 21:20:00,
2013-02-03 15:25:00,60.3,15.3,29.56,SW,225,2.9,6.0,17,0.00,,---,0.00,VWS V14.01,2013-02-03 21:25:00,
2013-02-03 15:30:00,60.1,15.1,29.56,South,180,1.6,3.8,17,0.00,,---,0.00,VWS V14.01,2013-02-03 21:30:00,
2013-02-03 15:35:00,59.4,14.6,29.56,SSW,202,1.6,3.6,17,0.00,,---,0.00,VWS V14.01,2013-02-03 21:35:00,
2013-02-03 15:40:00,59.7,14.9,29.56,SSW,202,2.0,2.2,17,0.00,,---,0.00,VWS V14.01,2013-02-03 21:40:00,
2013-02-03 15:45:00,59.4,14.6,29.56,SW,225,3.1,4.0,17,0.00,,---,0.00,VWS V14.01,2013-02-03 21:45:00,
2013-02-03 15:50:00,58.8,14.1,29.56,SSW,202,2.5,4.3,17,0.00,,---,0.00,VWS V14.01,2013-02-03 21:50:00,
2013-02-03 15:55:00,58.8,14.1,29.56,West,270,3.4,3.4,17,0.00,,---,0.00,VWS V14.01,2013-02-03 21:55:00,
2013-02-03 16:00:00,58.6,14.0,29.56,SSW,202,2.5,4.0,17,0.00,,---,0.00,VWS V14.01,2013-02-03 22:00:00,
2013-02-03 16:05:00,58.5,13.8,29.56,WSW,248,2.0,2.9,17,0.00,,---,0.00,VWS V14.01,2013-02-03 22:05:00,
2013-02-03 16:10:00,58.5,13.8,29.56,WNW,292,0.0,1.3,17,0.00,,---,0.00,VWS V14.01,2013-02-03 22:10:00,
2013-02-03 16:15:00,58.1,13.5,29.56,SW,225,3.1,4.7,17,0.00,,---,0.00,VWS V14.01,2013-02-03 22:15:00,
2013-02-03 16:20:00,58.1,13.5,29.56,West,270,2.5,3.6,17,0.00,,---,0.00,VWS V14.01,2013-02-03 22:20:00,
2013-02-03 16:25:00,58.3,13.7,29.56,WSW,248,3.6,3.6,17,0.00,,---,0.00,VWS V14.01,2013-02-03 22:25:00,
2013-02-03 16:30:00,58.3,13.7,29.56,South,180,2.7,4.0,17,0.00,,---,0.00,VWS V14.01,2013-02-03 22:30:00,
2013-02-03 16:35:00,58.5,13.8,29.53,West,270,0.0,2.2,17,0.00,,---,0.00,VWS V14.01,2013-02-03 22:35:00,
2013-02-03 16:40:00,58.5,13.8,29.53,SSE,158,1.6,2.5,17,0.00,,---,0.00,VWS V14.01,2013-02-03 22:40:00,
2013-02-03 16:45:00,58.5,13.8,29.53,SSE,158,0.0,0.9,17,0.00,,---,0.00,VWS V14.01,2013-02-03 22:45:00,
2013-02-03 16:50:00,58.5,13.8,29.53,East,90,0.0,0.0,17,0.00,,---,0.00,VWS V14.01,2013-02-03 22:50:00,
2013-02-03 16:55:00,58.1,13.5,29.53,SSW,202,1.1,2.0,17,0.00,,---,0.00,VWS V14.01,2013-02-03 22:55:00,
2013-02-03 17:00:00,57.9,13.4,29.53,SSW,202,0.0,0.0,17,0.00,,---,0.00,VWS V14.01,2013-02-03 23:00:00,
2013-02-03 17:05:00,57.6,13.1,29.50,SSW,202,0.0,0.0,17,0.00,,---,0.00,VWS V14.01,2013-02-03 23:05:00,
2013-02-03 17:10:00,57.7,13.2,29.50,SSE,158,1.1,1.3,17,0.00,,---,0.00,VWS V14.01,2013-02-03 23:10:00,
2013-02-03 17:16:00,57.4,12.9,29.50,SE,135,1.3,2.7,17,0.00,,---,0.00,VWS V14.01,2013-02-03 23:16:00,
2013-02-03 17:21:00,57.2,12.8,29.53,ESE,112,1.1,2.0,17,0.00,,---,0.00,VWS V14.01,2013-02-03 23:21:00,
2013-02-03 17:26:00,56.8,12.5,29.53,ESE,112,0.0,0.0,17,0.00,,---,0.00,VWS V14.01,2013-02-03 23:26:00,
2013-02-03 17:31:00,56.3,12.1,29.53,ESE,112,0.0,0.0,17,0.00,,---,0.00,VWS V14.01,2013-02-03 23:31:00,
2013-02-03 17:36:00,55.9,11.8,29.53,SSE,158,1.1,1.6,17,0.00,,---,0.00,VWS V14.01,2013-02-03 23:36:00,
2013-02-03 17:41:00,55.4,11.3,29.53,SSE,158,1.1,1.1,17,0.00,,---,0.00,VWS V14.01,2013-02-03 23:41:00,
2013-02-03 17:46:00,54.5,11.9,29.53,SSE,158,1.3,1.3,18,0.00,,---,0.00,VWS V14.01,2013-02-03 23:46:00,
2013-02-03 17:51:00,54.1,11.6,29.50,SSE,158,1.3,1.3,18,0.00,,---,0.00,VWS V14.01,2013-02-03 23:51:00,
2013-02-03 17:56:00,53.2,10.9,29.50,SSE,158,0.9,1.3,18,0.00,,---,0.00,VWS V14.01,2013-02-03 23:56:00,
2013-02-03 18:01:00,53.1,10.7,29.50,ESE,112,0.9,1.6,18,0.00,,---,0.00,VWS V14.01,2013-02-04 00:01:00,
2013-02-03 18:06:00,52.7,10.4,29.50,ESE,112,2.0,2.5,18,0.00,,---,0.00,VWS V14.01,2013-02-04 00:06:00,
2013-02-03 18:11:00,52.2,13.4,29.50,East,90,2.5,2.5,21,0.00,,---,0.00,VWS V14.01,2013-02-04 00:11:00,
2013-02-03 18:16:00,51.4,10.6,29.50,NE,45,1.6,1.6,19,0.00,,---,0.00,VWS V14.01,2013-02-04 00:16:00,
2013-02-03 18:21:00,51.3,12.7,29.50,NE,45,1.6,2.0,21,0.00,,---,0.00,VWS V14.01,2013-02-04 00:21:00,
2013-02-03 18:26:00,50.9,12.4,29.50,ENE,68,1.3,2.2,21,0.00,,---,0.00,VWS V14.01,2013-02-04 00:26:00,
2013-02-03 18:31:00,50.5,12.1,29.50,ENE,68,1.6,1.6,21,0.00,,---,0.00,VWS V14.01,2013-02-04 00:31:00,
2013-02-03 18:36:00,50.2,11.8,29.50,ENE,68,1.1,1.1,21,0.00,,---,0.00,VWS V14.01,2013-02-04 00:36:00,
2013-02-03 18:41:00,49.8,11.5,29.50,ENE,68,1.3,1.6,21,0.00,,---,0.00,VWS V14.01,2013-02-04 00:41:00,
2013-02-03 18:46:00,49.6,11.3,29.50,ENE,68,2.0,2.2,21,0.00,,---,0.00,VWS V14.01,2013-02-04 00:46:00,
2013-02-03 18:51:00,49.8,11.5,29.50,ENE,68,1.3,2.0,21,0.00,,---,0.00,VWS V14.01,2013-02-04 00:51:00,
2013-02-03 18:56:00,49.8,11.5,29.50,ENE,68,2.0,2.0,21,0.00,,---,0.00,VWS V14.01,2013-02-04 00:56:00,
2013-02-03 19:01:00,49.5,11.2,29.50,ENE,68,1.1,1.6,21,0.00,,---,0.00,VWS V14.01,2013-02-04 01:01:00,
2013-02-03 19:06:00,49.3,11.0,29.50,ENE,68,1.6,2.0,21,0.00,,---,0.00,VWS V14.01,2013-02-04 01:06:00,
2013-02-03 19:12:00,49.1,10.9,29.50,ENE,68,1.6,2.2,21,0.00,,---,0.00,VWS V14.01,2013-02-04 01:12:00,
2013-02-03 19:17:00,48.7,10.6,29.50,ENE,68,1.3,2.2,21,0.00,,---,0.00,VWS V14.01,2013-02-04 01:17:00,
2013-02-03 19:22:00,48.7,10.6,29.50,ENE,68,1.6,2.2,21,0.00,,---,0.00,VWS V14.01,2013-02-04 01:22:00,
2013-02-03 19:27:00,48.6,10.4,29.50,ENE,68,1.1,2.0,21,0.00,,---,0.00,VWS V14.01,2013-02-04 01:27:00,
2013-02-03 19:32:00,48.2,10.1,29.50,ESE,112,1.6,2.9,21,0.00,,---,0.00,VWS V14.01,2013-02-04 01:32:00,
2013-02-03 19:37:00,48.2,10.1,29.50,ESE,112,1.3,1.6,21,0.00,,---,0.00,VWS V14.01,2013-02-04 01:37:00,
2013-02-03 19:42:00,48.2,10.1,29.50,East,90,2.0,2.2,21,0.00,,---,0.00,VWS V14.01,2013-02-04 01:42:00,
2013-02-03 19:47:00,48.0,11.0,29.50,East,90,2.0,2.2,22,0.00,,---,0.00,VWS V14.01,2013-02-04 01:47:00,
2013-02-03 19:52:00,48.0,11.0,29.50,East,90,1.6,2.5,22,0.00,,---,0.00,VWS V14.01,2013-02-04 01:52:00,
2013-02-03 19:57:00,47.8,10.9,29.50,East,90,0.0,1.3,22,0.00,,---,0.00,VWS V14.01,2013-02-04 01:57:00,
2013-02-03 20:02:00,47.8,12.8,29.50,East,90,1.1,2.2,24,0.00,,---,0.00,VWS V14.01,2013-02-04 02:02:00,
2013-02-03 20:07:00,47.7,12.7,29.50,East,90,0.0,0.9,24,0.00,,---,0.00,VWS V14.01,2013-02-04 02:07:00,
2013-02-03 20:12:00,47.5,12.5,29.50,East,90,0.0,0.0,24,0.00,,---,0.00,VWS V14.01,2013-02-04 02:12:00,
2013-02-03 20:17:00,47.3,12.4,29.50,East,90,0.0,0.0,24,0.00,,---,0.00,VWS V14.01,2013-02-04 02:17:00,
2013-02-03 20:22:00,46.9,12.1,29.50,East,90,0.0,0.0,24,0.00,,---,0.00,VWS V14.01,2013-02-04 02:22:00,
2013-02-03 20:27:00,46.8,11.9,29.50,East,90,0.0,0.0,24,0.00,,---,0.00,VWS V14.01,2013-02-04 02:27:00,
2013-02-03 20:32:00,46.4,11.6,29.50,East,90,1.3,2.0,24,0.00,,---,0.00,VWS V14.01,2013-02-04 02:32:00,
2013-02-03 20:37:00,46.2,12.4,29.50,East,90,0.0,1.6,25,0.00,,---,0.00,VWS V14.01,2013-02-04 02:37:00,
2013-02-03 20:42:00,46.2,12.4,29.50,East,90,0.0,1.3,25,0.00,,---,0.00,VWS V14.01,2013-02-04 02:42:00,
2013-02-03 20:47:00,46.0,12.2,29.50,East,90,0.0,1.1,25,0.00,,---,0.00,VWS V14.01,2013-02-04 02:47:00,
2013-02-03 20:52:00,45.9,12.0,29.50,East,90,0.0,0.0,25,0.00,,---,0.00,VWS V14.01,2013-02-04 02:52:00,
2013-02-03 20:57:00,45.7,11.9,29.50,East,90,0.0,0.0,25,0.00,,---,0.00,VWS V14.01,2013-02-04 02:57:00,
2013-02-03 21:02:00,45.5,11.7,29.50,East,90,0.0,0.0,25,0.00,,---,0.00,VWS V14.01,2013-02-04 03:02:00,
2013-02-03 21:07:00,45.3,13.3,29.50,East,90,0.0,1.3,27,0.00,,---,0.00,VWS V14.01,2013-02-04 03:07:00,
2013-02-03 21:12:00,44.2,14.0,29.50,East,90,2.2,2.7,29,0.00,,---,0.00,VWS V14.01,2013-02-04 03:12:00,
2013-02-03 21:17:00,43.9,13.7,29.50,NNW,338,1.6,2.2,29,0.00,,---,0.00,VWS V14.01,2013-02-04 03:17:00,
2013-02-03 21:22:00,43.0,14.4,29.50,WNW,292,0.9,2.7,31,0.00,,---,0.00,VWS V14.01,2013-02-04 03:22:00,
2013-02-03 21:27:00,43.0,14.4,29.50,WNW,292,0.0,0.0,31,0.00,,---,0.00,VWS V14.01,2013-02-04 03:27:00,
2013-02-03 21:32:00,41.7,14.1,29.50,WNW,292,0.0,0.0,32,0.00,,---,0.00,VWS V14.01,2013-02-04 03:32:00,
2013-02-03 21:37:00,41.4,14.4,29.50,WNW,292,0.0,0.0,33,0.00,,---,0.00,VWS V14.01,2013-02-04 03:37:00,
2013-02-03 21:42:00,40.8,15.3,29.50,WNW,292,0.0,1.1,35,0.00,,---,0.00,VWS V14.01,2013-02-04 03:42:00,
2013-02-03 21:47:00,40.6,17.0,29.50,WNW,292,2.2,2.2,38,0.00,,---,0.00,VWS V14.01,2013-02-04 03:47:00,
2013-02-03 21:53:00,40.5,16.9,29.50,WNW,292,0.0,1.6,38,0.00,,---,0.00,VWS V14.01,2013-02-04 03:53:00,
2013-02-03 21:58:00,40.5,15.6,29.50,NNW,338,0.0,0.0,36,0.00,,---,0.00,VWS V14.01,2013-02-04 03:58:00,
2013-02-03 22:03:00,40.5,16.3,29.50,NNW,338,0.0,0.0,37,0.00,,---,0.00,VWS V14.01,2013-02-04 04:03:00,
2013-02-03 22:08:00,40.6,16.4,29.50,NNW,338,0.0,0.0,37,0.00,,---,0.00,VWS V14.01,2013-02-04 04:08:00,
2013-02-03 22:13:00,40.6,16.4,29.50,NNW,338,0.0,0.0,37,0.00,,---,0.00,VWS V14.01,2013-02-04 04:13:00,
2013-02-03 22:18:00,40.6,15.8,29.50,NNW,338,0.0,1.1,36,0.00,,---,0.00,VWS V14.01,2013-02-04 04:18:00,
2013-02-03 22:23:00,41.0,16.1,29.50,NNW,338,0.0,0.0,36,0.00,,---,0.00,VWS V14.01,2013-02-04 04:23:00,
2013-02-03 22:28:00,41.0,16.7,29.50,NNW,338,0.0,0.0,37,0.00,,---,0.00,VWS V14.01,2013-02-04 04:28:00,
2013-02-03 22:33:00,41.2,17.5,29.50,NNW,338,0.0,1.1,38,0.00,,---,0.00,VWS V14.01,2013-02-04 04:33:00,
2013-02-03 22:38:00,41.2,16.9,29.50,NNW,338,0.0,0.0,37,0.00,,---,0.00,VWS V14.01,2013-02-04 04:38:00,
2013-02-03 22:43:00,41.2,16.3,29.50,NNW,338,0.0,0.0,36,0.00,,---,0.00,VWS V14.01,2013-02-04 04:43:00,
2013-02-03 22:48:00,41.2,16.3,29.50,NNW,338,0.0,0.0,36,0.00,,---,0.00,VWS V14.01,2013-02-04 04:48:00,
2013-02-03 22:53:00,41.0,16.1,29.50,NNW,338,0.0,0.0,36,0.00,,---,0.00,VWS V14.01,2013-02-04 04:53:00,
2013-02-03 22:58:00,41.0,17.4,29.50,NNW,338,0.0,0.0,38,0.00,,---,0.00,VWS V14.01,2013-02-04 04:58:00,
2013-02-03 23:01:00,40.8,17.8,29.50,NNW,338,0.0,0.0,39,0.00,,---,0.00,VWS V14.01,2013-02-04 05:01:00,
2013-02-03 23:03:00,40.8,17.8,29.47,NNW,338,1.1,1.3,39,0.00,,---,0.00,VWS V14.01,2013-02-04 05:03:00,
2013-02-03 23:05:00,40.6,17.0,29.47,NNW,338,0.9,0.9,38,0.00,,---,0.00,VWS V14.01,2013-02-04 05:05:00,
2013-02-03 23:08:00,40.6,17.6,29.47,NNW,338,0.0,0.9,39,0.00,,---,0.00,VWS V14.01,2013-02-04 05:08:00,
2013-02-03 23:13:00,40.5,17.5,29.47,NNW,338,0.0,1.3,39,0.00,,---,0.00,VWS V14.01,2013-02-04 05:13:00,
2013-02-03 23:18:00,40.5,17.5,29.47,NNW,338,0.0,0.0,39,0.00,,---,0.00,VWS V14.01,2013-02-04 05:18:00,
2013-02-03 23:23:00,40.5,17.5,29.47,NNW,338,0.0,0.0,39,0.00,,---,0.00,VWS V14.01,2013-02-04 05:23:00,
2013-02-03 23:29:00,40.5,17.5,29.47,NNE,22,0.0,0.0,39,0.00,,---,0.00,VWS V14.01,2013-02-04 05:29:00,
2013-02-03 23:34:00,40.8,17.8,29.47,NE,45,0.9,2.5,39,0.00,,---,0.00,VWS V14.01,2013-02-04 05:34:00,
2013-02-03 23:39:00,41.0,18.5,29.47,ESE,112,0.0,1.6,40,0.00,,---,0.00,VWS V14.01,2013-02-04 05:39:00,
2013-02-03 23:44:00,41.0,18.0,29.47,ESE,112,0.0,1.1,39,0.00,,---,0.00,VWS V14.01,2013-02-04 05:44:00,
2013-02-03 23:49:00,41.0,18.5,29.47,ESE,112,1.6,1.6,40,0.00,,---,0.00,VWS V14.01,2013-02-04 05:49:00,
2013-02-03 23:54:00,40.6,18.2,29.47,NNW,338,0.0,1.6,40,0.00,,---,0.00,VWS V14.01,2013-02-04 05:54:00,
2013-02-03 23:59:00,40.6,18.2,29.47,NNW,338,0.0,0.0,40,0.00,,---,0.00,VWS V14.01,2013-02-04 05:59:00,